Location: Unspecified
(0.0000°N, 0.0000°E)
Time: 04:34:26
(UTC+02:00)

ATLAS V CENTAUR R/B - Visible Passes

Search period start: 28 March 2017 00:00
Search period end: 07 April 2017 00:00
Orbit: 244 x 27973 km, 18.1° (Epoch: 26 March)

Date Brightness Start Highest point End Pass type
(mag) Time Alt. Az. Time Alt. Az. Time Alt. Az.
28 Mar 8.5 21:05:34 10° WSW 22:33:20 75° NW 04:27:16 10° E visible
29 Mar 8.4 21:26:28 10° WSW 23:03:08 69° WNW 04:47:26 10° E visible
30 Mar 8.3 21:47:31 10° W 23:29:36 63° WNW 05:07:18 10° E visible
31 Mar 8.2 22:08:46 10° W 23:54:03 57° WNW 05:26:56 10° E visible
01 Apr 8.1 22:30:19 10° W 00:17:11 51° WNW 05:46:19 10° E visible
02 Apr 8.1 22:52:19 10° W 00:39:22 46° WNW 06:05:27 10° E visible
03 Apr 8.0 23:14:55 10° W 01:00:48 40° WNW 06:24:22 10° E visible
04 Apr 7.9 23:38:25 10° W 01:21:37 35° WNW 06:43:03 10° E visible
05 Apr 6.4 15:07:36 10° SSW 20:09:37 12° ENE 20:55:53 10° ENE visible
06 Apr 7.8 00:03:13 10° W 01:41:55 29° WNW 07:01:32 10° ESE visible
06 Apr 6.6 15:25:44 10° SW 20:26:56 17° ENE 21:46:08 10° ENE visible
